BADR-6 (33154 NORAD) Tracking and Keplerian Element Data

This shows tracking and keplerian element data for the satellite.

Feedback or suggestion? Click here.




ElementValue
Catalog33154
NameBADR-6
Epoch Orbit5961
Epoch Day286.86160553
Epoch Year2024
RAAN85.9211
Inclination1.2587
Eccentricity0.0003424
Argument of Perigee93.1168
Mean Anonmoly179.3257
Mean Motion1.00272962
Decay Rate1.46E-06
L11 33154U 08034B 24286.86160553 .00000146 00000+0 00000+0 0 9996
L22 33154 1.2587 85.9211 0003424 93.1168 179.3257 1.00272962 59612



Live tracking and technical data element details for BADR-6 (NORAD 33154). BADR-6 can be tracked NOW for your location showing map with azimuth and elevation plus other details from your city location.







IsCatalogInMostPopularTable: catalog: 33154, numindb: 314
Update: records affected: 1



GetName: 33154 BADR-6

Hit Count: updated at: Thu, 22 May 2025 04:32:52 GMT